Time,TemperatureF,DewpointF,PressureIn,WindDirection,WindDirectionDegrees,WindSpeedMPH,WindSpeedGustMPH,Humidity,HourlyPrecipIn,Conditions,Clouds,dailyrainin,SoftwareType,DateUTC
2013-01-10 00:00:00,67.1,67.0,30.20,ESE,109,7.0,-999.0,99,-99.99,,,0.00,weatherlink.com 1.10,2013-01-10 06:00:00,
2013-01-10 00:15:00,66.7,66.0,30.20,SE,141,4.0,-999.0,99,-99.99,,,0.00,weatherlink.com 1.10,2013-01-10 06:15:00,
2013-01-10 00:32:00,66.3,66.0,30.20,SE,146,6.0,-999.0,99,-99.99,,,0.00,weatherlink.com 1.10,2013-01-10 06:32:00,
2013-01-10 00:46:00,66.1,66.0,30.19,SE,134,5.0,-999.0,99,-99.99,,,0.00,weatherlink.com 1.10,2013-01-10 06:46:00,
2013-01-10 01:01:00,65.9,66.0,30.18,ESE,111,5.0,-999.0,99,-99.99,,,0.00,weatherlink.com 1.10,2013-01-10 07:01:00,
2013-01-10 01:17:00,66.1,66.0,30.18,ESE,117,13.0,-999.0,100,-99.99,,,0.00,weatherlink.com 1.10,2013-01-10 07:17:00,
2013-01-10 01:31:00,66.4,66.0,30.18,ESE,119,8.0,-999.0,100,-99.99,,,0.00,weatherlink.com 1.10,2013-01-10 07:31:00,
2013-01-10 01:46:00,66.4,66.0,30.19,SE,126,5.0,-999.0,100,-99.99,,,0.00,weatherlink.com 1.10,2013-01-10 07:46:00,
2013-01-10 02:01:00,66.5,67.0,30.19,ENE,78,5.0,-999.0,100,-99.99,,,0.00,weatherlink.com 1.10,2013-01-10 08:01:00,
2013-01-10 02:17:00,66.7,67.0,30.18,East,93,7.0,-999.0,100,-99.99,,,0.00,weatherlink.com 1.10,2013-01-10 08:17:00,
2013-01-10 02:31:00,66.6,67.0,30.18,SE,128,5.0,-999.0,100,-99.99,,,0.00,weatherlink.com 1.10,2013-01-10 08:31:00,
2013-01-10 02:46:00,66.4,66.0,30.18,SSE,168,8.0,-999.0,99,-99.99,,,0.00,weatherlink.com 1.10,2013-01-10 08:46:00,
2013-01-10 03:01:00,66.2,66.0,30.17,South,175,7.0,-999.0,100,-99.99,,,0.00,weatherlink.com 1.10,2013-01-10 09:01:00,
2013-01-10 03:16:00,65.9,66.0,30.16,ESE,113,6.0,-999.0,99,-99.99,,,0.00,weatherlink.com 1.10,2013-01-10 09:16:00,
2013-01-10 03:31:00,65.9,66.0,30.15,ENE,71,11.0,-999.0,99,-99.99,,,0.00,weatherlink.com 1.10,2013-01-10 09:31:00,
2013-01-10 03:46:00,65.9,66.0,30.14,South,170,7.0,-999.0,99,-99.99,,,0.00,weatherlink.com 1.10,2013-01-10 09:46:00,
2013-01-10 04:01:00,65.6,65.0,30.13,SE,132,6.0,-999.0,99,-99.99,,,0.00,weatherlink.com 1.10,2013-01-10 10:01:00,
2013-01-10 04:17:00,65.8,66.0,30.12,ESE,114,8.0,-999.0,100,-99.99,,,0.00,weatherlink.com 1.10,2013-01-10 10:17:00,
2013-01-10 04:31:00,65.8,66.0,30.12,ESE,113,20.0,-999.0,100,-99.99,,,0.00,weatherlink.com 1.10,2013-01-10 10:31:00,
2013-01-10 04:46:00,65.5,66.0,30.11,SE,128,13.0,-999.0,100,-99.99,,,0.00,weatherlink.com 1.10,2013-01-10 10:46:00,
2013-01-10 05:02:00,65.5,65.0,30.12,ESE,122,6.0,-999.0,99,-99.99,,,0.00,weatherlink.com 1.10,2013-01-10 11:02:00,
2013-01-10 05:17:00,65.3,65.0,30.11,East,79,6.0,-999.0,99,-99.99,,,0.00,weatherlink.com 1.10,2013-01-10 11:17:00,
2013-01-10 05:32:00,65.0,65.0,30.11,SSE,147,10.0,-999.0,99,-99.99,,,0.00,weatherlink.com 1.10,2013-01-10 11:32:00,
2013-01-10 05:47:00,64.5,64.0,30.11,East,90,8.0,-999.0,99,-99.99,,,0.00,weatherlink.com 1.10,2013-01-10 11:47:00,
2013-01-10 06:02:00,64.2,64.0,30.11,East,88,12.0,-999.0,99,-99.99,,,0.00,weatherlink.com 1.10,2013-01-10 12:02:00,
2013-01-10 06:17:00,64.6,65.0,30.11,SE,135,6.0,-999.0,100,-99.99,,,0.00,weatherlink.com 1.10,2013-01-10 12:17:00,
2013-01-10 06:32:00,65.0,65.0,30.13,SE,142,5.0,-999.0,100,-99.99,,,0.00,weatherlink.com 1.10,2013-01-10 12:32:00,
2013-01-10 06:47:00,65.2,65.0,30.14,East,95,8.0,-999.0,100,-99.99,,,0.00,weatherlink.com 1.10,2013-01-10 12:47:00,
2013-01-10 07:01:00,65.2,65.0,30.14,ESE,104,13.0,-999.0,100,-99.99,,,0.00,weatherlink.com 1.10,2013-01-10 13:01:00,
2013-01-10 07:17:00,64.9,65.0,30.14,SE,126,9.0,-999.0,100,-99.99,,,0.00,weatherlink.com 1.10,2013-01-10 13:17:00,
2013-01-10 07:31:00,64.8,65.0,30.14,ESE,104,8.0,-999.0,100,-99.99,,,0.00,weatherlink.com 1.10,2013-01-10 13:31:00,
2013-01-10 07:46:00,64.8,65.0,30.14,ESE,111,6.0,-999.0,100,-99.99,,,0.00,weatherlink.com 1.10,2013-01-10 13:46:00,
2013-01-10 08:01:00,64.9,65.0,30.15,ESE,102,7.0,-999.0,100,-99.99,,,0.00,weatherlink.com 1.10,2013-01-10 14:01:00,
2013-01-10 08:17:00,64.9,65.0,30.15,East,83,10.0,-999.0,100,-99.99,,,0.00,weatherlink.com 1.10,2013-01-10 14:17:00,
2013-01-10 08:32:00,65.0,65.0,30.16,ESE,113,15.0,-999.0,100,-99.99,,,0.00,weatherlink.com 1.10,2013-01-10 14:32:00,
2013-01-10 08:47:00,65.1,65.0,30.18,SE,142,7.0,-999.0,100,-99.99,,,0.00,weatherlink.com 1.10,2013-01-10 14:47:00,
2013-01-10 09:02:00,64.8,65.0,30.18,East,97,12.0,-999.0,100,-99.99,,,0.00,weatherlink.com 1.10,2013-01-10 15:02:00,
2013-01-10 09:17:00,64.4,64.0,30.19,ESE,109,5.0,-999.0,100,-99.99,,,0.00,weatherlink.com 1.10,2013-01-10 15:17:00,
2013-01-10 09:32:00,64.4,64.0,30.18,SE,129,13.0,-999.0,100,-99.99,,,0.00,weatherlink.com 1.10,2013-01-10 15:32:00,
2013-01-10 09:47:00,64.9,65.0,30.17,SE,139,8.0,-999.0,100,-99.99,,,0.00,weatherlink.com 1.10,2013-01-10 15:47:00,
2013-01-10 10:02:00,65.6,66.0,30.17,SE,144,15.0,-999.0,100,-99.99,,,0.00,weatherlink.com 1.10,2013-01-10 16:02:00,
2013-01-10 10:17:00,65.8,66.0,30.17,SE,142,15.0,-999.0,100,-99.99,,,0.00,weatherlink.com 1.10,2013-01-10 16:17:00,
2013-01-10 10:32:00,66.1,66.0,30.16,SE,131,17.0,-999.0,100,-99.99,,,0.00,weatherlink.com 1.10,2013-01-10 16:32:00,
2013-01-10 10:47:00,66.1,66.0,30.17,SE,141,5.0,-999.0,100,-99.99,,,0.00,weatherlink.com 1.10,2013-01-10 16:47:00,
2013-01-10 11:02:00,66.1,66.0,30.16,SE,137,13.0,-999.0,100,-99.99,,,0.00,weatherlink.com 1.10,2013-01-10 17:02:00,
2013-01-10 11:17:00,66.2,66.0,30.16,SSE,150,10.0,-999.0,99,-99.99,,,0.00,weatherlink.com 1.10,2013-01-10 17:17:00,
2013-01-10 11:32:00,66.3,66.0,30.16,ESE,121,17.0,-999.0,99,-99.99,,,0.00,weatherlink.com 1.10,2013-01-10 17:32:00,
2013-01-10 11:47:00,66.5,66.0,30.15,East,90,14.0,-999.0,99,-99.99,,,0.00,weatherlink.com 1.10,2013-01-10 17:47:00,
2013-01-10 12:02:00,66.5,66.0,30.16,ESE,119,8.0,-999.0,99,-99.99,,,0.00,weatherlink.com 1.10,2013-01-10 18:02:00,
2013-01-10 12:17:00,66.5,66.0,30.14,ESE,114,6.0,-999.0,99,-99.99,,,0.00,weatherlink.com 1.10,2013-01-10 18:17:00,
2013-01-10 12:32:00,66.5,66.0,30.13,SE,136,5.0,-999.0,99,-99.99,,,0.00,weatherlink.com 1.10,2013-01-10 18:32:00,
2013-01-10 12:47:00,66.7,66.0,30.13,SE,135,10.0,-999.0,99,-99.99,,,0.00,weatherlink.com 1.10,2013-01-10 18:47:00,
2013-01-10 13:02:00,66.9,67.0,30.11,SE,143,2.0,-999.0,99,-99.99,,,0.00,weatherlink.com 1.10,2013-01-10 19:02:00,
2013-01-10 13:17:00,67.1,67.0,30.10,ENE,73,8.0,-999.0,99,-99.99,,,0.00,weatherlink.com 1.10,2013-01-10 19:17:00,
2013-01-10 13:33:00,67.4,67.0,30.08,SE,136,13.0,-999.0,99,-99.99,,,0.00,weatherlink.com 1.10,2013-01-10 19:33:00,
2013-01-10 13:48:00,67.6,67.0,30.07,SE,136,11.0,-999.0,99,-99.99,,,0.01,weatherlink.com 1.10,2013-01-10 19:48:00,
2013-01-10 14:04:00,66.5,66.0,30.10,SSW,205,8.0,-999.0,97,-99.99,,,0.03,weatherlink.com 1.10,2013-01-10 20:04:00,
2013-01-10 14:17:00,65.0,64.0,30.09,SSE,159,4.0,-999.0,97,-99.99,,,0.05,weatherlink.com 1.10,2013-01-10 20:17:00,
2013-01-10 14:32:00,64.4,64.0,30.10,SSW,193,2.0,-999.0,98,-99.99,,,0.06,weatherlink.com 1.10,2013-01-10 20:32:00,
2013-01-10 14:47:00,63.4,63.0,30.10,SW,228,3.0,-999.0,97,-99.99,,,0.07,weatherlink.com 1.10,2013-01-10 20:47:00,
2013-01-10 15:02:00,62.0,62.0,30.11,WSW,249,3.0,-999.0,98,-99.99,,,0.08,weatherlink.com 1.10,2013-01-10 21:02:00,
2013-01-10 15:17:00,61.6,61.0,30.13,WNW,289,5.0,-999.0,98,-99.99,,,0.08,weatherlink.com 1.10,2013-01-10 21:17:00,
2013-01-10 15:47:00,61.8,62.0,30.11,West,259,0.0,-999.0,99,-99.99,,,0.09,weatherlink.com 1.10,2013-01-10 21:47:00,
2013-01-10 16:17:00,62.0,62.0,30.13,West,259,0.0,-999.0,99,-99.99,,,0.11,weatherlink.com 1.10,2013-01-10 22:17:00,
2013-01-10 16:32:00,62.1,62.0,30.11,West,259,0.0,-999.0,99,-99.99,,,0.12,weatherlink.com 1.10,2013-01-10 22:32:00,
2013-01-10 16:47:00,62.2,62.0,30.10,West,259,2.0,-999.0,99,-99.99,,,0.13,weatherlink.com 1.10,2013-01-10 22:47:00,
2013-01-10 17:03:00,62.2,62.0,30.09,SSE,161,2.0,-999.0,99,-99.99,,,0.14,weatherlink.com 1.10,2013-01-10 23:03:00,
2013-01-10 17:18:00,61.5,61.0,30.09,SE,144,4.0,-999.0,99,-99.99,,,0.15,weatherlink.com 1.10,2013-01-10 23:18:00,
2013-01-10 17:34:00,61.4,61.0,30.07,SSE,157,2.0,-999.0,99,-99.99,,,0.15,weatherlink.com 1.10,2013-01-10 23:34:00,
2013-01-10 17:48:00,62.0,62.0,30.07,SSE,157,5.0,-999.0,100,-99.99,,,0.15,weatherlink.com 1.10,2013-01-10 23:48:00,
2013-01-10 18:03:00,61.9,62.0,30.02,SE,134,17.0,-999.0,100,-99.99,,,0.16,weatherlink.com 1.10,2013-01-11 00:03:00,
2013-01-10 18:19:00,62.3,62.0,30.02,SE,132,9.0,-999.0,100,-99.99,,,0.17,weatherlink.com 1.10,2013-01-11 00:19:00,
2013-01-10 18:33:00,62.3,62.0,30.02,SE,128,14.0,-999.0,100,-99.99,,,0.18,weatherlink.com 1.10,2013-01-11 00:33:00,
2013-01-10 19:04:00,62.4,62.0,29.96,NE,47,5.0,-999.0,100,-99.99,,,0.20,weatherlink.com 1.10,2013-01-11 01:04:00,
2013-01-10 19:19:00,62.5,63.0,30.00,SE,142,9.0,-999.0,100,-99.99,,,0.21,weatherlink.com 1.10,2013-01-11 01:19:00,
2013-01-10 19:34:00,62.4,62.0,30.03,SE,134,8.0,-999.0,100,-99.99,,,0.21,weatherlink.com 1.10,2013-01-11 01:34:00,
2013-01-10 19:49:00,62.1,62.0,30.06,SSE,148,6.0,-999.0,99,-99.99,,,0.22,weatherlink.com 1.10,2013-01-11 01:49:00,
2013-01-10 20:04:00,62.2,62.0,30.01,ESE,113,12.0,-999.0,99,-99.99,,,0.22,weatherlink.com 1.10,2013-01-11 02:04:00,
2013-01-10 20:19:00,61.9,62.0,30.06,WNW,294,5.0,-999.0,99,-99.99,,,0.22,weatherlink.com 1.10,2013-01-11 02:19:00,
2013-01-10 20:34:00,62.1,62.0,30.07,NW,320,0.0,-999.0,99,-99.99,,,0.22,weatherlink.com 1.10,2013-01-11 02:34:00,
2013-01-10 20:50:00,62.5,63.0,30.10,SSW,196,0.0,-999.0,100,-99.99,,,0.22,weatherlink.com 1.10,2013-01-11 02:50:00,
2013-01-10 21:03:00,62.6,63.0,30.10,SSE,157,2.0,-999.0,100,-99.99,,,0.22,weatherlink.com 1.10,2013-01-11 03:03:00,
2013-01-10 21:19:00,62.7,63.0,30.11,WSW,257,0.0,-999.0,99,-99.99,,,0.22,weatherlink.com 1.10,2013-01-11 03:19:00,
2013-01-10 21:34:00,63.1,63.0,30.09,SSE,166,2.0,-999.0,99,-99.99,,,0.22,weatherlink.com 1.10,2013-01-11 03:34:00,
2013-01-10 22:04:00,63.0,63.0,30.10,SSE,159,2.0,-999.0,99,-99.99,,,0.22,weatherlink.com 1.10,2013-01-11 04:04:00,
2013-01-10 22:18:00,62.7,62.0,30.10,SSE,157,0.0,-999.0,98,-99.99,,,0.22,weatherlink.com 1.10,2013-01-11 04:18:00,
2013-01-10 22:34:00,62.3,62.0,30.09,SSE,158,0.0,-999.0,98,-99.99,,,0.22,weatherlink.com 1.10,2013-01-11 04:34:00,
2013-01-10 22:49:00,61.9,61.0,30.10,SSE,158,0.0,-999.0,98,-99.99,,,0.22,weatherlink.com 1.10,2013-01-11 04:49:00,
2013-01-10 23:03:00,61.7,62.0,30.10,SSE,159,0.0,-999.0,99,-99.99,,,0.22,weatherlink.com 1.10,2013-01-11 05:03:00,
2013-01-10 23:18:00,61.8,62.0,30.10,SSE,161,2.0,-999.0,99,-99.99,,,0.22,weatherlink.com 1.10,2013-01-11 05:18:00,
2013-01-10 23:34:00,61.8,62.0,30.11,SSE,161,0.0,-999.0,99,-99.99,,,0.22,weatherlink.com 1.10,2013-01-11 05:34:00,
2013-01-10 23:48:00,61.7,62.0,30.11,SSE,162,0.0,-999.0,99,-99.99,,,0.22,weatherlink.com 1.10,2013-01-11 05:48:00,